Piper Inness — WDC3984 — position and weather

sailwx.info

Track history (hours):
 
Tides and Currents Weather Stations Pressure Air Temp Water Temp Dewpoint Dewpoint Depression Visibility Wind Speed Wind Dir Waves Ship Positions

Piper Inness

Owner: Foss Maritime Co, Seattle, WA. More information available from US FCC via Universal Licensing System and Coast Guard Vessel Documentation Center.

Last reported at 2014-Oct-21 16:34 UTC. Time now 2014-Oct-21 16:57 UTC.
Position N 33°02' W 117°48'.

; draft 2 m.

Type: Other ship. MMSI: 367017440.

Date/timePositionNaut miles runAvg speedWind from/ knotsBaromVisibWave heightAir tempDewpointWater temp
2014-Oct-21 16:34N 33°02' W 117°48'1 0.8
2014-Oct-21 15:33N 33°02' W 117°49'2 1.5
2014-Oct-21 14:32N 33°01' W 117°47'1 1.1
2014-Oct-21 13:33N 33°00' W 117°47'1 0.9
2014-Oct-21 12:31N 32°59' W 117°46'1 0.7
2014-Oct-21 11:33N 32°59' W 117°47'1 1.0
2014-Oct-21 10:33N 32°58' W 117°48'1 0.7
2014-Oct-21 09:33N 32°58' W 117°48'1 1.3
2014-Oct-21 08:33N 32°57' W 117°47'1 1.1
2014-Oct-21 07:33N 32°56' W 117°47'2 1.5
2014-Oct-21 06:33N 32°54' W 117°46'1 1.3
2014-Oct-21 05:33N 32°56' W 117°46'3 2.6
2014-Oct-21 04:34N 32°54' W 117°44'1 0.5
2014-Oct-21 03:34N 32°54' W 117°44'4 4.4
2014-Oct-21 02:33N 32°58' W 117°48'4 3.9
2014-Oct-21 01:33N 33°00' W 117°51'4 4.4
2014-Oct-21 00:33N 33°04' W 117°55'4 3.9
2014-Oct-20 23:33N 33°07' W 117°58'6 5.9
2014-Oct-20 22:33N 33°12' W 118°01'3316.3
2014-Oct-20 20:33N 33°43' W 118°11'3 3.1
2014-Oct-20 19:33N 33°46' W 118°13'0 0.0
2014-Oct-19 08:33N 33°46' W 118°13'3214.3
2014-Oct-19 06:19N 33°17' W 117°57'1215.7
2014-Oct-19 05:33N 33°06' W 117°51'1 1.4
2014-Oct-19 04:33N 33°05' W 117°51'1 0.9
2014-Oct-19 03:33N 33°05' W 117°50'2 2.0
2014-Oct-19 02:33N 33°04' W 117°47'2 1.9
2014-Oct-19 01:33N 33°04' W 117°50'3 2.5
2014-Oct-19 00:33N 33°03' W 117°47'1 0.5
2014-Oct-18 23:33N 33°02' W 117°48'1 1.3
2014-Oct-18 22:33N 33°01' W 117°47'1 0.7
2014-Oct-18 21:33N 33°01' W 117°46'1 1.3
2014-Oct-18 20:33N 32°60' W 117°46'1 1.0
2014-Oct-18 19:33N 32°59' W 117°45'1 0.6
2014-Oct-18 18:33N 32°59' W 117°45'1 1.2
2014-Oct-18 17:33N 32°58' W 117°44'3 3.0
2014-Oct-18 16:33N 32°55' W 117°43'1 0.7
2014-Oct-18 15:33N 32°55' W 117°42'0 0.3
2014-Oct-18 14:33N 32°55' W 117°42'2 2.1
2014-Oct-18 13:33N 32°56' W 117°44'2 1.6
2014-Oct-18 12:33N 32°57' W 117°46'1 0.8
2014-Oct-18 11:34N 32°56' W 117°46'1 1.0
2014-Oct-18 10:33N 32°56' W 117°47'2 1.7
2014-Oct-18 09:33N 32°57' W 117°49'3 3.5
2014-Oct-18 08:33N 32°60' W 117°51'4 4.2
2014-Oct-18 07:34N 33°03' W 117°53'4 4.3
2014-Oct-18 06:34N 33°07' W 117°55'2 1.9
2014-Oct-18 05:33N 33°09' W 117°56'2 1.9
2014-Oct-18 04:33N 33°09' W 117°58'0 0.4
2014-Oct-18 03:34N 33°10' W 117°58'6 6.3
2014-Oct-18 02:33N 33°16' W 117°57'3115.5
2014-Oct-18 00:33N 33°44' W 118°12'2 2.2
2014-Oct-17 23:33N 33°46' W 118°13'0 0.0
2014-Oct-17 22:31N 33°46' W 118°13'0 0.0
2014-Oct-17 21:31N 33°46' W 118°13'0 0.0
2014-Oct-17 20:31N 33°46' W 118°13'0 0.0
2014-Oct-17 19:31N 33°46' W 118°13'0 0.0
2014-Oct-17 18:31N 33°46' W 118°13'0 0.0
2014-Oct-17 17:28N 33°46' W 118°13'0 0.0
2014-Oct-17 16:31N 33°46' W 118°13'0 0.0
2014-Oct-17 15:31N 33°46' W 118°13'0 0.0
2014-Oct-17 14:31N 33°46' W 118°13'0 0.0
2014-Oct-17 13:31N 33°46' W 118°13'0 0.0
2014-Oct-17 12:31N 33°46' W 118°13'0 0.0
2014-Oct-17 11:31N 33°46' W 118°13'0 0.0
2014-Oct-17 10:31N 33°46' W 118°13'0 0.0
2014-Oct-17 09:31N 33°46' W 118°13'0 0.0
2014-Oct-17 08:31N 33°46' W 118°13'0 0.0
2014-Oct-17 07:31N 33°46' W 118°13'0 0.0
2014-Oct-17 06:28N 33°46' W 118°13'0 0.0
2014-Oct-17 05:31N 33°46' W 118°13'0 0.0
2014-Oct-17 04:31N 33°46' W 118°13'0 0.0
2014-Oct-17 03:31N 33°46' W 118°13'0 0.0
2014-Oct-17 02:31N 33°46' W 118°13'0 0.0
2014-Oct-17 01:31N 33°46' W 118°13'0 0.0
2014-Oct-17 00:28N 33°46' W 118°13'0 0.0
2014-Oct-16 23:31N 33°46' W 118°13'0 0.0
2014-Oct-16 22:22N 33°46' W 118°13'0 0.0
2014-Oct-16 21:31N 33°46' W 118°13'0 0.0
2014-Oct-16 20:31N 33°46' W 118°13'0 0.0
2014-Oct-16 19:31N 33°46' W 118°13'0 0.0
2014-Oct-16 18:31N 33°46' W 118°13'0 0.0
2014-Oct-16 17:31N 33°46' W 118°13'0 0.0
2014-Oct-16 16:31N 33°46' W 118°13'0 0.0
2014-Oct-16 15:31N 33°46' W 118°13'0 0.0
2014-Oct-16 14:31N 33°46' W 118°13'0 0.0
2014-Oct-16 13:28N 33°46' W 118°13'0 0.0
2014-Oct-16 12:31N 33°46' W 118°13'0 0.0
2014-Oct-16 11:34N 33°46' W 118°13'0 0.0
2014-Oct-16 10:34N 33°46' W 118°13'0 0.0
2014-Oct-16 09:34N 33°46' W 118°13'0 0.0
2014-Oct-16 08:31N 33°46' W 118°13'0 0.0
2014-Oct-16 07:31N 33°46' W 118°13'0 0.0
2014-Oct-16 06:33N 33°46' W 118°13'0 0.0
2014-Oct-16 05:31N 33°46' W 118°13'0 0.0
2014-Oct-16 04:31N 33°46' W 118°13'0 0.0
2014-Oct-16 03:31N 33°46' W 118°13'0 0.0
2014-Oct-16 02:31N 33°46' W 118°13'0 0.0
2014-Oct-16 01:33N 33°46' W 118°13'0 0.0
2014-Oct-16 00:31N 33°46' W 118°13'0 0.0
2014-Oct-15 23:34N 33°46' W 118°13'0 0.0
2014-Oct-15 22:31N 33°46' W 118°13'0 0.0
2014-Oct-15 21:32N 33°46' W 118°13'0 0.0
2014-Oct-15 20:31N 33°46' W 118°13'0 0.0
2014-Oct-15 19:31N 33°46' W 118°13'0 0.0
2014-Oct-15 18:31N 33°46' W 118°13'0 0.0
2014-Oct-15 17:31N 33°46' W 118°13'0 0.0
2014-Oct-15 16:31N 33°46' W 118°13'0 0.0
2014-Oct-15 15:31N 33°46' W 118°13'0 0.0
2014-Oct-15 14:31N 33°46' W 118°13'0 0.0
2014-Oct-15 13:28N 33°46' W 118°13'0 0.0
2014-Oct-15 12:31N 33°46' W 118°13'0 0.0
2014-Oct-15 11:31N 33°46' W 118°13'0 0.0
2014-Oct-15 10:31N 33°46' W 118°13'0 0.0
2014-Oct-15 09:31N 33°46' W 118°13'0 0.0
2014-Oct-15 08:31N 33°46' W 118°13'0 0.0
2014-Oct-15 07:31N 33°46' W 118°13'0 0.0
2014-Oct-15 06:31N 33°46' W 118°13'0 0.0
2014-Oct-15 05:31N 33°46' W 118°13'0 0.0
2014-Oct-15 04:31N 33°46' W 118°13'0 0.0
2014-Oct-15 03:28N 33°46' W 118°13'0 0.0
2014-Oct-15 02:28N 33°46' W 118°13'0 0.0
2014-Oct-15 01:25N 33°46' W 118°13'0 0.0
2014-Oct-15 00:31N 33°46' W 118°13'0 0.0
2014-Oct-14 23:31N 33°46' W 118°13'0 0.0
2014-Oct-14 22:31N 33°46' W 118°13'0 0.0
2014-Oct-14 21:31N 33°46' W 118°13'0 0.0
2014-Oct-14 20:28N 33°46' W 118°13'0 0.0
2014-Oct-14 19:31N 33°46' W 118°13'0 0.0
2014-Oct-14 18:31N 33°46' W 118°13'0 0.0
2014-Oct-14 17:31N 33°46' W 118°13'0 0.0
2014-Oct-14 16:28N 33°46' W 118°13'0 0.0
2014-Oct-14 15:28N 33°46' W 118°13'0 0.0
2014-Oct-14 14:31N 33°46' W 118°13'0 0.0
2014-Oct-14 13:31N 33°46' W 118°13'0 0.0
2014-Oct-14 12:31N 33°46' W 118°13'0 0.0
2014-Oct-14 11:31N 33°46' W 118°13'0 0.0
2014-Oct-14 10:31N 33°46' W 118°13'0 0.0
2014-Oct-14 09:31N 33°46' W 118°13'0 0.0
2014-Oct-14 08:31N 33°46' W 118°13'0 0.0
2014-Oct-14 07:31N 33°46' W 118°13'0 0.0
2014-Oct-14 06:31N 33°46' W 118°13'0 0.0
2014-Oct-14 05:31N 33°46' W 118°13'0 0.0
2014-Oct-14 04:31N 33°46' W 118°13'0 0.0
2014-Oct-14 03:31N 33°46' W 118°13'0 0.0
2014-Oct-14 02:31N 33°46' W 118°13'0 0.0
2014-Oct-14 01:31N 33°46' W 118°13'0 0.0
2014-Oct-14 00:28N 33°46' W 118°13'0 0.0
2014-Oct-13 23:31N 33°46' W 118°13'0 0.0
2014-Oct-13 22:30N 33°46' W 118°13'0 0.0
2014-Oct-13 21:31N 33°46' W 118°13'0 0.0
2014-Oct-13 20:33N 33°46' W 118°13'0 0.0
2014-Oct-13 19:33N 33°46' W 118°13'0 0.0
2014-Oct-13 18:33N 33°46' W 118°13'0 0.0
2014-Oct-13 17:33N 33°46' W 118°13'0 0.0
2014-Oct-13 16:33N 33°46' W 118°13'0 0.0
2014-Oct-13 15:33N 33°46' W 118°13'1211.6
2014-Oct-13 14:33N 33°36' W 118°07'2318.0
2014-Oct-13 13:16N 33°14' W 117°57'5 6.4
2014-Oct-13 12:34N 33°10' W 117°55'4 3.7
2014-Oct-13 11:33N 33°08' W 117°51'2 1.9
2014-Oct-13 10:33N 33°06' W 117°51'1 0.8
2014-Oct-13 09:33N 33°05' W 117°50'1 0.5
2014-Oct-13 08:32N 33°06' W 117°50'1 1.2
2014-Oct-13 07:33N 33°05' W 117°50'1 0.6
2014-Oct-13 06:33N 33°04' W 117°50'1 0.8
2014-Oct-13 05:33N 33°04' W 117°51'1 0.5
2014-Oct-13 04:33N 33°04' W 117°51'4 4.3
2014-Oct-13 03:33N 32°60' W 117°50'1 0.9
2014-Oct-13 02:33N 32°60' W 117°49'1 0.8
2014-Oct-13 01:33N 33°00' W 117°48'3 2.8
2014-Oct-13 00:33N 33°02' W 117°46'1 0.9
2014-Oct-12 23:33N 33°01' W 117°46'1 1.1
2014-Oct-12 22:33N 33°00' W 117°47'1 1.3
2014-Oct-12 21:30N 33°01' W 117°48'1 1.2
2014-Oct-12 20:33N 33°00' W 117°49'1 0.9
2014-Oct-12 19:33N 33°01' W 117°49'1 0.7
2014-Oct-12 18:33N 33°01' W 117°49'2 1.8
2014-Oct-12 17:33N 33°00' W 117°50'2 1.9
2014-Oct-12 16:32N 33°02' W 117°51'1 0.6
2014-Oct-12 15:33N 33°01' W 117°51'1 0.5
2014-Oct-12 14:33N 33°01' W 117°51'1 1.0
2014-Oct-12 13:33N 33°02' W 117°51'1 0.5
2014-Oct-12 12:33N 33°02' W 117°50'1 0.7
2014-Oct-12 11:33N 33°01' W 117°50'1 0.6
2014-Oct-12 10:33N 33°02' W 117°51'1 1.4
2014-Oct-12 09:33N 33°01' W 117°49'5 4.7
2014-Oct-12 08:33N 33°05' W 117°53'3 3.0
2014-Oct-12 07:33N 33°07' W 117°55'0 0.2
2014-Oct-12 06:33N 33°07' W 117°55'3 2.6
2014-Oct-12 05:33N 33°09' W 117°56'2 2.3
2014-Oct-12 04:32N 33°10' W 117°59'1412.0
2014-Oct-12 03:24N 33°24' W 118°03'1517.0
2014-Oct-12 02:30N 33°38' W 118°09'7 7.5
2014-Oct-12 01:33N 33°44' W 118°13'2 2.2
2014-Oct-12 00:33N 33°46' W 118°13'  
Track history (hours):
 
Tides and Currents Weather Stations Pressure Air Temp Water Temp Dewpoint Dewpoint Depression Visibility Wind Speed Wind Dir Waves Ship Positions

Piper Inness

Owner: Foss Maritime Co, Seattle, WA. More information available from US FCC via Universal Licensing System and Coast Guard Vessel Documentation Center.

Last reported at 2014-Oct-21 16:34 UTC. Time now 2014-Oct-21 16:57 UTC.
Position N 33°02' W 117°48'.

; draft 2 m.

Type: Other ship. MMSI: 367017440.

Date/timePositionNaut miles runAvg speedWind from/ knotsBaromVisibWave heightAir tempDewpointWater temp
2014-Oct-21 16:34N 33°02' W 117°48'1 0.8
2014-Oct-21 15:33N 33°02' W 117°49'2 1.5
2014-Oct-21 14:32N 33°01' W 117°47'1 1.1
2014-Oct-21 13:33N 33°00' W 117°47'1 0.9
2014-Oct-21 12:31N 32°59' W 117°46'1 0.7
2014-Oct-21 11:33N 32°59' W 117°47'1 1.0
2014-Oct-21 10:33N 32°58' W 117°48'1 0.7
2014-Oct-21 09:33N 32°58' W 117°48'1 1.3
2014-Oct-21 08:33N 32°57' W 117°47'1 1.1
2014-Oct-21 07:33N 32°56' W 117°47'2 1.5
2014-Oct-21 06:33N 32°54' W 117°46'1 1.3
2014-Oct-21 05:33N 32°56' W 117°46'3 2.6
2014-Oct-21 04:34N 32°54' W 117°44'1 0.5
2014-Oct-21 03:34N 32°54' W 117°44'4 4.4
2014-Oct-21 02:33N 32°58' W 117°48'4 3.9
2014-Oct-21 01:33N 33°00' W 117°51'4 4.4
2014-Oct-21 00:33N 33°04' W 117°55'4 3.9
2014-Oct-20 23:33N 33°07' W 117°58'6 5.9
2014-Oct-20 22:33N 33°12' W 118°01'3316.3
2014-Oct-20 20:33N 33°43' W 118°11'3 3.1
2014-Oct-20 19:33N 33°46' W 118°13'0 0.0
2014-Oct-19 08:33N 33°46' W 118°13'3214.3
2014-Oct-19 06:19N 33°17' W 117°57'1215.7
2014-Oct-19 05:33N 33°06' W 117°51'1 1.4
2014-Oct-19 04:33N 33°05' W 117°51'1 0.9
2014-Oct-19 03:33N 33°05' W 117°50'2 2.0
2014-Oct-19 02:33N 33°04' W 117°47'2 1.9
2014-Oct-19 01:33N 33°04' W 117°50'3 2.5
2014-Oct-19 00:33N 33°03' W 117°47'1 0.5
2014-Oct-18 23:33N 33°02' W 117°48'1 1.3
2014-Oct-18 22:33N 33°01' W 117°47'1 0.7
2014-Oct-18 21:33N 33°01' W 117°46'1 1.3
2014-Oct-18 20:33N 32°60' W 117°46'1 1.0
2014-Oct-18 19:33N 32°59' W 117°45'1 0.6
2014-Oct-18 18:33N 32°59' W 117°45'1 1.2
2014-Oct-18 17:33N 32°58' W 117°44'3 3.0
2014-Oct-18 16:33N 32°55' W 117°43'1 0.7
2014-Oct-18 15:33N 32°55' W 117°42'0 0.3
2014-Oct-18 14:33N 32°55' W 117°42'2 2.1
2014-Oct-18 13:33N 32°56' W 117°44'2 1.6
2014-Oct-18 12:33N 32°57' W 117°46'1 0.8
2014-Oct-18 11:34N 32°56' W 117°46'1 1.0
2014-Oct-18 10:33N 32°56' W 117°47'2 1.7
2014-Oct-18 09:33N 32°57' W 117°49'3 3.5
2014-Oct-18 08:33N 32°60' W 117°51'4 4.2
2014-Oct-18 07:34N 33°03' W 117°53'4 4.3
2014-Oct-18 06:34N 33°07' W 117°55'2 1.9
2014-Oct-18 05:33N 33°09' W 117°56'2 1.9
2014-Oct-18 04:33N 33°09' W 117°58'0 0.4
2014-Oct-18 03:34N 33°10' W 117°58'6 6.3
2014-Oct-18 02:33N 33°16' W 117°57'3115.5
2014-Oct-18 00:33N 33°44' W 118°12'2 2.2
2014-Oct-17 23:33N 33°46' W 118°13'0 0.0
2014-Oct-17 22:31N 33°46' W 118°13'0 0.0
2014-Oct-17 21:31N 33°46' W 118°13'0 0.0
2014-Oct-17 20:31N 33°46' W 118°13'0 0.0
2014-Oct-17 19:31N 33°46' W 118°13'0 0.0
2014-Oct-17 18:31N 33°46' W 118°13'0 0.0
2014-Oct-17 17:28N 33°46' W 118°13'0 0.0
2014-Oct-17 16:31N 33°46' W 118°13'0 0.0
2014-Oct-17 15:31N 33°46' W 118°13'0 0.0
2014-Oct-17 14:31N 33°46' W 118°13'0 0.0
2014-Oct-17 13:31N 33°46' W 118°13'0 0.0
2014-Oct-17 12:31N 33°46' W 118°13'0 0.0
2014-Oct-17 11:31N 33°46' W 118°13'0 0.0
2014-Oct-17 10:31N 33°46' W 118°13'0 0.0
2014-Oct-17 09:31N 33°46' W 118°13'0 0.0
2014-Oct-17 08:31N 33°46' W 118°13'0 0.0
2014-Oct-17 07:31N 33°46' W 118°13'0 0.0
2014-Oct-17 06:28N 33°46' W 118°13'0 0.0
2014-Oct-17 05:31N 33°46' W 118°13'0 0.0
2014-Oct-17 04:31N 33°46' W 118°13'0 0.0
2014-Oct-17 03:31N 33°46' W 118°13'0 0.0
2014-Oct-17 02:31N 33°46' W 118°13'0 0.0
2014-Oct-17 01:31N 33°46' W 118°13'0 0.0
2014-Oct-17 00:28N 33°46' W 118°13'0 0.0
2014-Oct-16 23:31N 33°46' W 118°13'0 0.0
2014-Oct-16 22:22N 33°46' W 118°13'0 0.0
2014-Oct-16 21:31N 33°46' W 118°13'0 0.0
2014-Oct-16 20:31N 33°46' W 118°13'0 0.0
2014-Oct-16 19:31N 33°46' W 118°13'0 0.0
2014-Oct-16 18:31N 33°46' W 118°13'0 0.0
2014-Oct-16 17:31N 33°46' W 118°13'0 0.0
2014-Oct-16 16:31N 33°46' W 118°13'0 0.0
2014-Oct-16 15:31N 33°46' W 118°13'0 0.0
2014-Oct-16 14:31N 33°46' W 118°13'0 0.0
2014-Oct-16 13:28N 33°46' W 118°13'0 0.0
2014-Oct-16 12:31N 33°46' W 118°13'0 0.0
2014-Oct-16 11:34N 33°46' W 118°13'0 0.0
2014-Oct-16 10:34N 33°46' W 118°13'0 0.0
2014-Oct-16 09:34N 33°46' W 118°13'0 0.0
2014-Oct-16 08:31N 33°46' W 118°13'0 0.0
2014-Oct-16 07:31N 33°46' W 118°13'0 0.0
2014-Oct-16 06:33N 33°46' W 118°13'0 0.0
2014-Oct-16 05:31N 33°46' W 118°13'0 0.0
2014-Oct-16 04:31N 33°46' W 118°13'0 0.0
2014-Oct-16 03:31N 33°46' W 118°13'0 0.0
2014-Oct-16 02:31N 33°46' W 118°13'0 0.0
2014-Oct-16 01:33N 33°46' W 118°13'0 0.0
2014-Oct-16 00:31N 33°46' W 118°13'0 0.0
2014-Oct-15 23:34N 33°46' W 118°13'0 0.0
2014-Oct-15 22:31N 33°46' W 118°13'0 0.0
2014-Oct-15 21:32N 33°46' W 118°13'0 0.0
2014-Oct-15 20:31N 33°46' W 118°13'0 0.0
2014-Oct-15 19:31N 33°46' W 118°13'0 0.0
2014-Oct-15 18:31N 33°46' W 118°13'0 0.0
2014-Oct-15 17:31N 33°46' W 118°13'0 0.0
2014-Oct-15 16:31N 33°46' W 118°13'0 0.0
2014-Oct-15 15:31N 33°46' W 118°13'0 0.0
2014-Oct-15 14:31N 33°46' W 118°13'0 0.0
2014-Oct-15 13:28N 33°46' W 118°13'0 0.0
2014-Oct-15 12:31N 33°46' W 118°13'0 0.0
2014-Oct-15 11:31N 33°46' W 118°13'0 0.0
2014-Oct-15 10:31N 33°46' W 118°13'0 0.0
2014-Oct-15 09:31N 33°46' W 118°13'0 0.0
2014-Oct-15 08:31N 33°46' W 118°13'0 0.0
2014-Oct-15 07:31N 33°46' W 118°13'0 0.0
2014-Oct-15 06:31N 33°46' W 118°13'0 0.0
2014-Oct-15 05:31N 33°46' W 118°13'0 0.0
2014-Oct-15 04:31N 33°46' W 118°13'0 0.0
2014-Oct-15 03:28N 33°46' W 118°13'0 0.0
2014-Oct-15 02:28N 33°46' W 118°13'0 0.0
2014-Oct-15 01:25N 33°46' W 118°13'0 0.0
2014-Oct-15 00:31N 33°46' W 118°13'0 0.0
2014-Oct-14 23:31N 33°46' W 118°13'0 0.0
2014-Oct-14 22:31N 33°46' W 118°13'0 0.0
2014-Oct-14 21:31N 33°46' W 118°13'0 0.0
2014-Oct-14 20:28N 33°46' W 118°13'0 0.0
2014-Oct-14 19:31N 33°46' W 118°13'0 0.0
2014-Oct-14 18:31N 33°46' W 118°13'0 0.0
2014-Oct-14 17:31N 33°46' W 118°13'0 0.0
2014-Oct-14 16:28N 33°46' W 118°13'0 0.0
2014-Oct-14 15:28N 33°46' W 118°13'0 0.0
2014-Oct-14 14:31N 33°46' W 118°13'0 0.0
2014-Oct-14 13:31N 33°46' W 118°13'0 0.0
2014-Oct-14 12:31N 33°46' W 118°13'0 0.0
2014-Oct-14 11:31N 33°46' W 118°13'0 0.0
2014-Oct-14 10:31N 33°46' W 118°13'0 0.0
2014-Oct-14 09:31N 33°46' W 118°13'0 0.0
2014-Oct-14 08:31N 33°46' W 118°13'0 0.0
2014-Oct-14 07:31N 33°46' W 118°13'0 0.0
2014-Oct-14 06:31N 33°46' W 118°13'0 0.0
2014-Oct-14 05:31N 33°46' W 118°13'0 0.0
2014-Oct-14 04:31N 33°46' W 118°13'0 0.0
2014-Oct-14 03:31N 33°46' W 118°13'0 0.0
2014-Oct-14 02:31N 33°46' W 118°13'0 0.0
2014-Oct-14 01:31N 33°46' W 118°13'0 0.0
2014-Oct-14 00:28N 33°46' W 118°13'0 0.0
2014-Oct-13 23:31N 33°46' W 118°13'0 0.0
2014-Oct-13 22:30N 33°46' W 118°13'0 0.0
2014-Oct-13 21:31N 33°46' W 118°13'0 0.0
2014-Oct-13 20:33N 33°46' W 118°13'0 0.0
2014-Oct-13 19:33N 33°46' W 118°13'0 0.0
2014-Oct-13 18:33N 33°46' W 118°13'0 0.0
2014-Oct-13 17:33N 33°46' W 118°13'0 0.0
2014-Oct-13 16:33N 33°46' W 118°13'0 0.0
2014-Oct-13 15:33N 33°46' W 118°13'1211.6
2014-Oct-13 14:33N 33°36' W 118°07'2318.0
2014-Oct-13 13:16N 33°14' W 117°57'5 6.4
2014-Oct-13 12:34N 33°10' W 117°55'4 3.7
2014-Oct-13 11:33N 33°08' W 117°51'2 1.9
2014-Oct-13 10:33N 33°06' W 117°51'1 0.8
2014-Oct-13 09:33N 33°05' W 117°50'1 0.5
2014-Oct-13 08:32N 33°06' W 117°50'1 1.2
2014-Oct-13 07:33N 33°05' W 117°50'1 0.6
2014-Oct-13 06:33N 33°04' W 117°50'1 0.8
2014-Oct-13 05:33N 33°04' W 117°51'1 0.5
2014-Oct-13 04:33N 33°04' W 117°51'4 4.3
2014-Oct-13 03:33N 32°60' W 117°50'1 0.9
2014-Oct-13 02:33N 32°60' W 117°49'1 0.8
2014-Oct-13 01:33N 33°00' W 117°48'3 2.8
2014-Oct-13 00:33N 33°02' W 117°46'1 0.9
2014-Oct-12 23:33N 33°01' W 117°46'1 1.1
2014-Oct-12 22:33N 33°00' W 117°47'1 1.3
2014-Oct-12 21:30N 33°01' W 117°48'1 1.2
2014-Oct-12 20:33N 33°00' W 117°49'1 0.9
2014-Oct-12 19:33N 33°01' W 117°49'1 0.7
2014-Oct-12 18:33N 33°01' W 117°49'2 1.8
2014-Oct-12 17:33N 33°00' W 117°50'2 1.9
2014-Oct-12 16:32N 33°02' W 117°51'1 0.6
2014-Oct-12 15:33N 33°01' W 117°51'1 0.5
2014-Oct-12 14:33N 33°01' W 117°51'1 1.0
2014-Oct-12 13:33N 33°02' W 117°51'1 0.5
2014-Oct-12 12:33N 33°02' W 117°50'1 0.7
2014-Oct-12 11:33N 33°01' W 117°50'1 0.6
2014-Oct-12 10:33N 33°02' W 117°51'1 1.4
2014-Oct-12 09:33N 33°01' W 117°49'5 4.7
2014-Oct-12 08:33N 33°05' W 117°53'3 3.0
2014-Oct-12 07:33N 33°07' W 117°55'0 0.2
2014-Oct-12 06:33N 33°07' W 117°55'3 2.6
2014-Oct-12 05:33N 33°09' W 117°56'2 2.3
2014-Oct-12 04:32N 33°10' W 117°59'1412.0
2014-Oct-12 03:24N 33°24' W 118°03'1517.0
2014-Oct-12 02:30N 33°38' W 118°09'7 7.5
2014-Oct-12 01:33N 33°44' W 118°13'2 2.2
2014-Oct-12 00:33N 33°46' W 118°13'  

Dump ship's entire track history